Volver al catálogo

ATLAS AGENA D R/B

ActivoLEO
NORAD 2144·ROCKET BODY·🇺🇸 United States

Lanzado Apr 8, 1966 desde Cape Canaveral Space Force Station

Loading…

Próximos Pases (próximas 24 horas)

TLE

ActualizadoSource: Space-Track

Época: Sep 14, 2026, 13:09 UTC

1 02144U 66031B   26257.54849891  .00000240  00000-0  73467-4 0  9994
2 02144  35.0409 203.0367 0007723   4.4834 355.5925 14.44996520175705

Sigue ATLAS AGENA D R/B en tiempo real con AllMySat

Download on the App Store